| time (UTC) | temp F | wind direction | speed MPH | gust MPH | rain 1hr in | rain 24hr in | rain mn in | humidity % | barometer mb |
| 20260903133922 | 71 | 179 | 3.0 | 7.0 | 0.00 | 0.52 | 0.27 | 98 | 1013.5 |
| 20260903133625 | 71 | 215 | 4.0 | 6.0 | 0.00 | 0.52 | 0.27 | 98 | 1013.7 |
| 20260903133408 | 71 | 201 | 3.0 | 5.0 | 0.00 | 0.52 | 0.27 | 98 | 1013.8 |
| 20260903133123 | 71 | 225 | 3.0 | 5.0 | 0.00 | 0.52 | 0.27 | 98 | 1013.9 |
| 20260903132951 | 71 | 210 | 3.0 | 6.0 | 0.00 | 0.52 | 0.27 | 98 | 1013.9 |
| 20260903132629 | 71 | 205 | 2.0 | 6.0 | 0.00 | 0.52 | 0.27 | 99 | 1013.7 |
| 20260903132409 | 70 | 204 | 3.0 | 6.0 | 0.00 | 0.52 | 0.27 | 98 | 1013.8 |
| 20260903132108 | 70 | 223 | 3.0 | 6.0 | 0.00 | 0.52 | 0.27 | 99 | 1013.7 |
| 20260903131936 | 71 | 177 | 2.0 | 5.0 | 0.00 | 0.52 | 0.27 | 99 | 1013.6 |
| 20260903131613 | 71 | 179 | 2.0 | 5.0 | 0.00 | 0.52 | 0.27 | 99 | 1013.6 |
| 20260903131413 | 70 | 174 | 1.0 | 5.0 | 0.00 | 0.52 | 0.27 | 99 | 1013.5 |
| 20260903131135 | 70 | 203 | 1.0 | 5.0 | 0.00 | 0.52 | 0.27 | 99 | 1013.7 |
| 20260903130919 | 70 | 203 | 2.0 | 5.0 | 0.00 | 0.52 | 0.27 | 99 | 1013.6 |
| 20260903130639 | 70 | 204 | 2.0 | 3.0 | 0.00 | 0.52 | 0.27 | 99 | 1013.6 |
| 20260903130444 | 70 | 204 | 2.0 | 4.0 | 0.00 | 0.52 | 0.27 | 99 | 1013.7 |
| 20260903130118 | 70 | 204 | 1.0 | 4.0 | 0.00 | 0.52 | 0.27 | 99 | 1013.7 |
| 20260903125929 | 70 | 204 | 1.0 | 5.0 | 0.00 | 0.52 | 0.27 | 99 | 1013.5 |
| 20260903125623 | 70 | 204 | 2.0 | 5.0 | 0.00 | 0.52 | 0.27 | 99 | 1013.6 |
| 20260903125427 | 69 | 200 | 2.0 | 5.0 | 0.00 | 0.52 | 0.27 | 99 | 1013.7 |
| 20260903125119 | 70 | 194 | 3.0 | 5.0 | 0.00 | 0.52 | 0.27 | 99 | 1013.7 |
| 20260903124930 | 70 | 177 | 3.0 | 6.0 | 0.00 | 0.52 | 0.27 | 99 | 1013.7 |
| 20260903124644 | 69 | 149 | 0.0 | 2.0 | 0.00 | 0.52 | 0.27 | 99 | 1013.9 |
| 20260903124435 | 69 | 149 | 0.0 | 3.0 | 0.00 | 0.52 | 0.27 | 99 | 1013.9 |
| 20260903124108 | 69 | 149 | 1.0 | 3.0 | 0.00 | 0.52 | 0.27 | 99 | 1013.8 |
| 20260903123912 | 69 | 149 | 1.0 | 3.0 | 0.00 | 0.52 | 0.27 | 99 | 1013.7 |
| 20260903123628 | 69 | 149 | 3.0 | 3.0 | 0.00 | 0.52 | 0.27 | 99 | 1013.7 |
| 20260903123434 | 69 | 150 | 3.0 | 4.0 | 0.00 | 0.52 | 0.27 | 99 | 1013.6 |
| 20260903123112 | 69 | 151 | 1.0 | 3.0 | 0.00 | 0.52 | 0.27 | 99 | 1013.7 |
| 20260903122911 | 69 | 151 | 1.0 | 3.0 | 0.00 | 0.52 | 0.27 | 99 | 1013.7 |
| 20260903122616 | 69 | 151 | 1.0 | 4.0 | 0.00 | 0.52 | 0.27 | 99 | 1013.8 |
| 20260903122416 | 69 | 151 | 1.0 | 2.0 | 0.00 | 0.52 | 0.27 | 99 | 1013.8 |
| 20260903122115 | 69 | 151 | 2.0 | 2.0 | 0.00 | 0.52 | 0.27 | 99 | 1013.9 |
| 20260903121916 | 69 | 151 | 1.0 | 2.0 | 0.00 | 0.52 | 0.27 | 99 | 1013.9 |
| 20260903121641 | 69 | 151 | 0.0 | 1.0 | 0.00 | 0.52 | 0.27 | 99 | 1013.9 |
| 20260903121421 | 69 | 151 | 1.0 | 1.0 | 0.00 | 0.52 | 0.27 | 99 | 1013.9 |
| 20260903121119 | 69 | 151 | 0.0 | 1.0 | 0.00 | 0.52 | 0.27 | 99 | 1014.0 |
| 20260903120928 | 69 | 151 | 0.0 | 1.0 | 0.00 | 0.52 | 0.27 | 99 | 1013.9 |
| 20260903120623 | 68 | 151 | 0.0 | 1.0 | 0.00 | 0.52 | 0.27 | 99 | 1013.9 |
| 20260903120423 | 68 | 151 | 0.0 | 2.0 | 0.00 | 0.52 | 0.27 | 99 | 1013.8 |
| 20260903120122 | 68 | 151 | 0.0 | 2.0 | 0.00 | 0.52 | 0.27 | 99 | 1013.5 |
| 20260903115928 | 68 | 151 | 0.0 | 3.0 | 0.00 | 0.52 | 0.27 | 99 | 1013.6 |
| 20260903115626 | 68 | 151 | 1.0 | 3.0 | 0.00 | 0.52 | 0.27 | 99 | 1013.7 |
| 20260903115407 | 68 | 151 | 1.0 | 3.0 | 0.00 | 0.52 | 0.27 | 99 | 1013.7 |
| 20260903115105 | 68 | 150 | 2.0 | 4.0 | 0.00 | 0.52 | 0.27 | 99 | 1013.5 |
| 20260903114906 | 68 | 150 | 2.0 | 3.0 | 0.00 | 0.52 | 0.27 | 99 | 1013.7 |
| 20260903114630 | 68 | 150 | 1.0 | 2.0 | 0.00 | 0.52 | 0.27 | 99 | 1013.6 |
| 20260903114430 | 68 | 150 | 1.0 | 2.0 | 0.00 | 0.52 | 0.27 | 99 | 1013.5 |
| 20260903114108 | 68 | 150 | 1.0 | 3.0 | 0.00 | 0.52 | 0.27 | 99 | 1013.8 |
| 20260903113909 | 68 | 150 | 0.0 | 3.0 | 0.00 | 0.52 | 0.27 | 99 | 1014.2 |
| 20260903113607 | 68 | 150 | 2.0 | 3.0 | 0.00 | 0.52 | 0.27 | 99 | 1014.0 |
| 20260903113414 | 68 | 151 | 1.0 | 2.0 | 0.00 | 0.52 | 0.27 | 99 | 1013.9 |
| 20260903113134 | 68 | 151 | 0.0 | 5.0 | 0.00 | 0.52 | 0.27 | 99 | 1013.9 |
| 20260903112913 | 68 | 151 | 0.0 | 5.0 | 0.00 | 0.52 | 0.27 | 99 | 1014.0 |
| 20260903112611 | 68 | 151 | 2.0 | 5.0 | 0.00 | 0.52 | 0.27 | 99 | 1014.0 |
| 20260903112418 | 68 | 150 | 3.0 | 5.0 | 0.00 | 0.52 | 0.27 | 99 | 1014.0 |
| 20260903112116 | 68 | 191 | 2.0 | 3.0 | 0.00 | 0.52 | 0.27 | 99 | 1014.3 |
| 20260903111917 | 68 | 189 | 2.0 | 3.0 | 0.00 | 0.52 | 0.27 | 99 | 1014.3 |
| 20260903111616 | 68 | 189 | 1.0 | 3.0 | 0.00 | 0.52 | 0.27 | 99 | 1014.1 |
| 20260903111423 | 68 | 189 | 1.0 | 3.0 | 0.00 | 0.52 | 0.27 | 99 | 1013.9 |
| 20260903111121 | 68 | 189 | 1.0 | 3.0 | 0.00 | 0.52 | 0.27 | 99 | 1013.8 |
| 20260903110922 | 68 | 189 | 1.0 | 3.0 | 0.00 | 0.52 | 0.27 | 99 | 1013.7 |
| 20260903110647 | 68 | 189 | 1.0 | 2.0 | 0.00 | 0.52 | 0.27 | 99 | 1013.8 |
| 20260903110427 | 68 | 189 | 1.0 | 2.0 | 0.00 | 0.52 | 0.27 | 99 | 1013.7 |
| 20260903110106 | 68 | 189 | 1.0 | 2.0 | 0.00 | 0.52 | 0.27 | 99 | 1013.9 |
| 20260903105907 | 68 | 189 | 1.0 | 2.0 | 0.00 | 0.52 | 0.27 | 98 | 1014.0 |
| 20260903105605 | 68 | 189 | 0.0 | 1.0 | 0.00 | 0.52 | 0.27 | 98 | 1014.2 |
| 20260903105405 | 68 | 189 | 0.0 | 1.0 | 0.00 | 0.52 | 0.27 | 98 | 1014.1 |
| 20260903105131 | 68 | 189 | 0.0 | 1.0 | 0.00 | 0.52 | 0.27 | 98 | 1014.1 |
| 20260903104911 | 68 | 189 | 0.0 | 1.0 | 0.00 | 0.53 | 0.27 | 98 | 1014.1 |
| 20260903104609 | 68 | 189 | 0.0 | 2.0 | 0.00 | 0.53 | 0.27 | 98 | 1014.1 |
| 20260903104410 | 68 | 189 | 0.0 | 4.0 | 0.00 | 0.53 | 0.27 | 98 | 1014.1 |
| 20260903104135 | 68 | 189 | 1.0 | 4.0 | 0.00 | 0.53 | 0.27 | 98 | 1014.0 |
| 20260903103935 | 68 | 189 | 1.0 | 4.0 | 0.00 | 0.53 | 0.27 | 98 | 1014.0 |
| 20260903103618 | 68 | 189 | 1.0 | 2.0 | 0.00 | 0.53 | 0.27 | 99 | 1014.0 |
| 20260903103419 | 68 | 189 | 1.0 | 2.0 | 0.00 | 0.53 | 0.27 | 99 | 1014.0 |
| 20260903103117 | 68 | 189 | 0.0 | 2.0 | 0.00 | 0.53 | 0.27 | 99 | 1013.9 |
| 20260903102918 | 68 | 189 | 0.0 | 2.0 | 0.00 | 0.53 | 0.27 | 99 | 1013.9 |
| 20260903102616 | 68 | 189 | 1.0 | 2.0 | 0.00 | 0.53 | 0.27 | 99 | 1013.9 |
| 20260903102444 | 68 | 189 | 0.0 | 2.0 | 0.00 | 0.53 | 0.27 | 99 | 1014.0 |
| 20260903102117 | 68 | 189 | 0.0 | 2.0 | 0.00 | 0.53 | 0.27 | 99 | 1014.1 |
| 20260903101922 | 68 | 189 | 1.0 | 2.0 | 0.00 | 0.53 | 0.27 | 99 | 1014.1 |
| 20260903101622 | 68 | 189 | 0.0 | 2.0 | 0.00 | 0.53 | 0.27 | 98 | 1014.1 |
| 20260903101428 | 68 | 189 | 1.0 | 2.0 | 0.00 | 0.53 | 0.27 | 98 | 1014.1 |
| 20260903101130 | 68 | 189 | 1.0 | 1.0 | 0.00 | 0.53 | 0.27 | 98 | 1014.1 |
| 20260903100907 | 68 | 189 | 0.0 | 1.0 | 0.00 | 0.53 | 0.27 | 98 | 1014.1 |
| 20260903100628 | 68 | 189 | 0.0 | 1.0 | 0.01 | 0.53 | 0.27 | 98 | 1014.1 |
| 20260903100439 | 68 | 189 | 0.0 | 1.0 | 0.01 | 0.53 | 0.27 | 98 | 1014.0 |
| 20260903100112 | 68 | 189 | 0.0 | 1.0 | 0.01 | 0.53 | 0.27 | 98 | 1014.0 |
| 20260903095918 | 68 | 189 | 0.0 | 1.0 | 0.01 | 0.53 | 0.27 | 98 | 1013.9 |
| 20260903095611 | 68 | 189 | 0.0 | 1.0 | 0.01 | 0.53 | 0.27 | 98 | 1013.8 |
| 20260903095416 | 68 | 189 | 0.0 | 1.0 | 0.01 | 0.53 | 0.27 | 98 | 1013.8 |
| 20260903095110 | 68 | 189 | 0.0 | 1.0 | 0.01 | 0.53 | 0.27 | 98 | 1013.8 |
| 20260903094922 | 68 | 189 | 0.0 | 1.0 | 0.01 | 0.53 | 0.27 | 98 | 1013.6 |
| 20260903094616 | 68 | 189 | 1.0 | 2.0 | 0.01 | 0.53 | 0.27 | 98 | 1013.5 |
| 20260903094441 | 68 | 189 | 0.0 | 2.0 | 0.01 | 0.53 | 0.27 | 98 | 1013.5 |
| 20260903094120 | 68 | 189 | 0.0 | 2.0 | 0.01 | 0.53 | 0.27 | 98 | 1013.4 |
| 20260903093925 | 68 | 189 | 1.0 | 2.0 | 0.01 | 0.53 | 0.27 | 99 | 1013.5 |
| 20260903093619 | 68 | 189 | 1.0 | 3.0 | 0.01 | 0.53 | 0.27 | 98 | 1013.5 |
| 20260903093423 | 68 | 189 | 0.0 | 3.0 | 0.01 | 0.53 | 0.27 | 98 | 1013.6 |
| 20260903093118 | 68 | 189 | 1.0 | 3.0 | 0.01 | 0.53 | 0.27 | 98 | 1013.5 |
| 20260903092929 | 68 | 189 | 2.0 | 3.0 | 0.01 | 0.53 | 0.27 | 98 | 1013.4 |
| 20260903092622 | 68 | 190 | 1.0 | 2.0 | 0.01 | 0.53 | 0.27 | 99 | 1013.6 |
| 20260903092407 | 68 | 190 | 0.0 | 2.0 | 0.01 | 0.53 | 0.27 | 99 | 1013.7 |
| 20260903092121 | 68 | 190 | 0.0 | 2.0 | 0.01 | 0.53 | 0.27 | 99 | 1013.8 |
| 20260903091930 | 68 | 190 | 0.0 | 2.0 | 0.01 | 0.53 | 0.27 | 99 | 1013.6 |
| 20260903091604 | 68 | 190 | 0.0 | 3.0 | 0.01 | 0.53 | 0.27 | 99 | 1013.6 |
| 20260903091408 | 68 | 190 | 1.0 | 3.0 | 0.01 | 0.53 | 0.27 | 99 | 1013.5 |
| 20260903091121 | 68 | 190 | 1.0 | 3.0 | 0.01 | 0.53 | 0.27 | 99 | 1013.5 |
| 20260903090906 | 68 | 190 | 2.0 | 3.0 | 0.01 | 0.53 | 0.27 | 99 | 1013.6 |
| 20260903090608 | 68 | 190 | 1.0 | 3.0 | 0.00 | 0.52 | 0.26 | 99 | 1013.9 |
| 20260903090411 | 68 | 190 | 1.0 | 3.0 | 0.00 | 0.52 | 0.26 | 99 | 1013.9 |
| 20260903090106 | 68 | 190 | 2.0 | 3.0 | 0.01 | 0.52 | 0.26 | 99 | 1014.1 |
| 20260903085911 | 68 | 190 | 2.0 | 3.0 | 0.01 | 0.52 | 0.26 | 99 | 1014.3 |
| 20260903085604 | 68 | 190 | 0.0 | 2.0 | 0.01 | 0.52 | 0.26 | 98 | 1014.3 |
| 20260903085415 | 68 | 190 | 0.0 | 2.0 | 0.01 | 0.52 | 0.26 | 98 | 1014.2 |
| 20260903085109 | 68 | 190 | 0.0 | 2.0 | 0.01 | 0.52 | 0.26 | 98 | 1013.9 |
| 20260903084914 | 68 | 190 | 1.0 | 2.0 | 0.01 | 0.52 | 0.26 | 99 | 1013.9 |
| 20260903084609 | 68 | 190 | 1.0 | 1.0 | 0.01 | 0.52 | 0.26 | 98 | 1014.0 |
| 20260903084441 | 68 | 190 | 0.0 | 1.0 | 0.01 | 0.52 | 0.26 | 99 | 1014.1 |
| 20260903084114 | 68 | 191 | 0.0 | 2.0 | 0.01 | 0.52 | 0.26 | 99 | 1014.1 |
| 20260903083919 | 68 | 190 | 1.0 | 2.0 | 0.01 | 0.52 | 0.26 | 99 | 1013.9 |
| 20260903083614 | 68 | 190 | 1.0 | 3.0 | 0.01 | 0.52 | 0.26 | 99 | 1013.9 |
| 20260903083418 | 68 | 191 | 0.0 | 3.0 | 0.01 | 0.52 | 0.26 | 99 | 1013.8 |
| 20260903083118 | 68 | 190 | 1.0 | 4.0 | 0.01 | 0.52 | 0.26 | 98 | 1013.6 |
| 20260903082905 | 68 | 190 | 2.0 | 4.0 | 0.01 | 0.52 | 0.26 | 98 | 1013.3 |
| 20260903082618 | 68 | 190 | 2.0 | 4.0 | 0.01 | 0.52 | 0.26 | 98 | 1013.2 |
| 20260903082423 | 68 | 190 | 2.0 | 5.0 | 0.01 | 0.52 | 0.26 | 98 | 1013.2 |
| 20260903082117 | 68 | 183 | 2.0 | 7.0 | 0.01 | 0.52 | 0.26 | 98 | 1013.1 |
| 20260903081928 | 68 | 159 | 3.0 | 7.0 | 0.01 | 0.52 | 0.26 | 98 | 1013.0 |
| 20260903081622 | 68 | 162 | 2.0 | 10.0 | 0.01 | 0.52 | 0.26 | 98 | 1013.1 |
| 20260903081407 | 68 | 156 | 4.0 | 10.0 | 0.01 | 0.52 | 0.26 | 98 | 1013.3 |
| 20260903081121 | 68 | 135 | 4.0 | 10.0 | 0.01 | 0.52 | 0.26 | 98 | 1013.5 |
| 20260903080905 | 68 | 199 | 4.0 | 10.0 | 0.01 | 0.52 | 0.26 | 98 | 1013.6 |
| 20260903080622 | 68 | 172 | 5.0 | 9.0 | 0.01 | 0.52 | 0.26 | 98 | 1013.7 |
| 20260903080407 | 68 | 169 | 5.0 | 8.0 | 0.01 | 0.52 | 0.26 | 98 | 1014.0 |
| 20260903080141 | 68 | 139 | 4.0 | 8.0 | 0.00 | 0.51 | 0.25 | 98 | 1014.2 |
| 20260903075905 | 68 | 195 | 3.0 | 6.0 | 0.01 | 0.51 | 0.25 | 98 | 1014.4 |
| 20260903075626 | 68 | 160 | 3.0 | 6.0 | 0.01 | 0.51 | 0.25 | 98 | 1014.5 |
| 20260903075410 | 68 | 170 | 3.0 | 6.0 | 0.01 | 0.51 | 0.25 | 98 | 1014.6 |
| 20260903075104 | 68 | 198 | 3.0 | 5.0 | 0.01 | 0.51 | 0.25 | 98 | 1014.6 |
| 20260903074909 | 68 | 191 | 3.0 | 5.0 | 0.01 | 0.51 | 0.25 | 98 | 1014.6 |
| 20260903074629 | 67 | 201 | 2.0 | 5.0 | 0.01 | 0.51 | 0.25 | 98 | 1014.6 |
| 20260903074431 | 67 | 201 | 2.0 | 5.0 | 0.01 | 0.51 | 0.25 | 98 | 1014.6 |
| 20260903074108 | 67 | 200 | 1.0 | 3.0 | 0.01 | 0.51 | 0.25 | 98 | 1014.7 |
| 20260903073909 | 67 | 200 | 1.0 | 2.0 | 0.01 | 0.51 | 0.25 | 98 | 1014.6 |
| 20260903073608 | 67 | 200 | 1.0 | 3.0 | 0.01 | 0.51 | 0.25 | 98 | 1014.6 |
| 20260903073415 | 67 | 200 | 2.0 | 3.0 | 0.01 | 0.51 | 0.25 | 98 | 1014.5 |
| 20260903073113 | 67 | 200 | 1.0 | 3.0 | 0.01 | 0.51 | 0.25 | 98 | 1014.5 |
| 20260903072914 | 67 | 200 | 2.0 | 3.0 | 0.01 | 0.51 | 0.25 | 98 | 1014.4 |
| 20260903072610 | 67 | 200 | 1.0 | 2.0 | 0.01 | 0.51 | 0.25 | 98 | 1014.5 |
| 20260903072438 | 67 | 200 | 0.0 | 1.0 | 0.02 | 0.51 | 0.25 | 98 | 1014.4 |
| 20260903072115 | 67 | 200 | 0.0 | 2.0 | 0.02 | 0.51 | 0.25 | 98 | 1014.5 |
| 20260903071944 | 67 | 200 | 0.0 | 2.0 | 0.02 | 0.51 | 0.25 | 98 | 1014.5 |
| 20260903071620 | 67 | 200 | 0.0 | 2.0 | 0.03 | 0.51 | 0.25 | 98 | 1014.3 |
| 20260903071421 | 67 | 200 | 1.0 | 2.0 | 0.03 | 0.51 | 0.25 | 98 | 1014.3 |
| 20260903071119 | 67 | 200 | 1.0 | 2.0 | 0.03 | 0.51 | 0.25 | 98 | 1014.2 |
| 20260903070927 | 67 | 200 | 1.0 | 2.0 | 0.03 | 0.51 | 0.25 | 98 | 1014.1 |
| 20260903070625 | 67 | 200 | 0.0 | 3.0 | 0.03 | 0.51 | 0.25 | 98 | 1014.3 |
| 20260903070406 | 67 | 200 | 0.0 | 4.0 | 0.03 | 0.51 | 0.25 | 98 | 1014.3 |
| 20260903070125 | 67 | 200 | 1.0 | 4.0 | 0.03 | 0.51 | 0.25 | 98 | 1014.2 |
| 20260903065932 | 67 | 200 | 2.0 | 4.0 | 0.02 | 0.50 | 0.24 | 98 | 1014.2 |
| 20260903065610 | 67 | 200 | 2.0 | 4.0 | 0.02 | 0.50 | 0.24 | 98 | 1014.2 |
| 20260903065407 | 67 | 200 | 2.0 | 4.0 | 0.02 | 0.50 | 0.24 | 98 | 1014.2 |
| 20260903065129 | 67 | 200 | 1.0 | 3.0 | 0.02 | 0.50 | 0.24 | 98 | 1014.3 |
| 20260903064930 | 67 | 200 | 1.0 | 3.0 | 0.03 | 0.50 | 0.24 | 98 | 1014.4 |
| 20260903064628 | 67 | 200 | 2.0 | 3.0 | 0.03 | 0.51 | 0.24 | 98 | 1014.6 |
| 20260903064407 | 67 | 200 | 2.0 | 3.0 | 0.03 | 0.51 | 0.24 | 98 | 1014.6 |
| 20260903064105 | 67 | 200 | 1.0 | 2.0 | 0.03 | 0.51 | 0.24 | 98 | 1014.8 |
| 20260903063911 | 67 | 200 | 1.0 | 2.0 | 0.03 | 0.51 | 0.24 | 98 | 1014.8 |
| 20260903063610 | 67 | 200 | 0.0 | 2.0 | 0.03 | 0.51 | 0.24 | 98 | 1014.9 |
| 20260903063410 | 67 | 200 | 0.0 | 2.0 | 0.03 | 0.51 | 0.24 | 98 | 1015.0 |
| 20260903063127 | 67 | 200 | 1.0 | 2.0 | 0.03 | 0.51 | 0.24 | 98 | 1015.0 |
| 20260903062913 | 67 | 200 | 1.0 | 2.0 | 0.03 | 0.51 | 0.24 | 98 | 1015.0 |
| 20260903062611 | 67 | 200 | 1.0 | 1.0 | 0.03 | 0.51 | 0.24 | 98 | 1015.0 |
| 20260903062412 | 67 | 200 | 0.0 | 1.0 | 0.02 | 0.50 | 0.23 | 98 | 1015.1 |
| 20260903062138 | 67 | 200 | 0.0 | 1.0 | 0.02 | 0.50 | 0.23 | 98 | 1015.1 |
| 20260903061916 | 67 | 200 | 0.0 | 1.0 | 0.02 | 0.50 | 0.23 | 98 | 1015.2 |
| 20260903061615 | 67 | 200 | 0.0 | 1.0 | 0.01 | 0.49 | 0.22 | 98 | 1015.3 |
| 20260903061416 | 67 | 200 | 0.0 | 1.0 | 0.02 | 0.49 | 0.22 | 98 | 1015.4 |
| 20260903061141 | 67 | 200 | 0.0 | 1.0 | 0.02 | 0.49 | 0.22 | 98 | 1015.4 |
| 20260903060921 | 67 | 200 | 0.0 | 1.0 | 0.02 | 0.49 | 0.22 | 98 | 1015.3 |
| 20260903060619 | 67 | 200 | 0.0 | 1.0 | 0.02 | 0.49 | 0.22 | 98 | 1015.4 |
| 20260903060426 | 67 | 200 | 0.0 | 1.0 | 0.03 | 0.49 | 0.22 | 98 | 1015.5 |
| 20260903060124 | 67 | 200 | 0.0 | 1.0 | 0.03 | 0.49 | 0.22 | 98 | 1015.6 |
| 20260903055905 | 67 | 200 | 0.0 | 1.0 | 0.03 | 0.49 | 0.22 | 98 | 1015.7 |
| 20260903055623 | 67 | 200 | 0.0 | 2.0 | 0.04 | 0.49 | 0.22 | 98 | 1015.7 |
| 20260903055424 | 67 | 200 | 0.0 | 2.0 | 0.04 | 0.49 | 0.22 | 98 | 1015.8 |
| 20260903055120 | 67 | 200 | 1.0 | 2.0 | 0.03 | 0.48 | 0.21 | 97 | 1015.8 |
| 20260903054926 | 67 | 200 | 1.0 | 2.0 | 0.04 | 0.48 | 0.21 | 98 | 1015.9 |
| 20260903054605 | 67 | 200 | 1.0 | 2.0 | 0.04 | 0.48 | 0.21 | 98 | 1016.0 |
| 20260903054405 | 67 | 200 | 1.0 | 2.0 | 0.05 | 0.48 | 0.21 | 97 | 1016.0 |
| 20260903054104 | 67 | 200 | 1.0 | 2.0 | 0.06 | 0.48 | 0.21 | 97 | 1016.0 |
| 20260903053951 | 67 | 200 | 0.0 | 2.0 | 0.06 | 0.48 | 0.21 | 97 | 1015.9 |
| 20260903053644 | 67 | 200 | 1.0 | 2.0 | 0.07 | 0.48 | 0.21 | 98 | 1015.9 |
| 20260903053408 | 67 | 200 | 1.0 | 2.0 | 0.08 | 0.48 | 0.21 | 98 | 1015.8 |
| 20260903053128 | 67 | 200 | 1.0 | 2.0 | 0.10 | 0.48 | 0.21 | 98 | 1015.9 |
| 20260903052913 | 67 | 200 | 0.0 | 2.0 | 0.13 | 0.48 | 0.21 | 97 | 1015.9 |
| 20260903052606 | 67 | 200 | 1.0 | 2.0 | 0.18 | 0.48 | 0.21 | 97 | 1015.7 |
| 20260903052411 | 67 | 200 | 2.0 | 2.0 | 0.19 | 0.48 | 0.21 | 97 | 1015.8 |
| 20260903052105 | 67 | 200 | 0.0 | 2.0 | 0.20 | 0.48 | 0.21 | 97 | 1016.0 |
| 20260903051910 | 67 | 200 | 0.0 | 3.0 | 0.20 | 0.48 | 0.21 | 97 | 1016.1 |
| 20260903051611 | 67 | 200 | 0.0 | 3.0 | 0.21 | 0.48 | 0.21 | 97 | 1016.2 |
| 20260903051416 | 67 | 200 | 1.0 | 3.0 | 0.20 | 0.47 | 0.20 | 97 | 1016.1 |
| 20260903051110 | 67 | 200 | 2.0 | 3.0 | 0.20 | 0.47 | 0.20 | 97 | 1015.5 |
| 20260903050915 | 67 | 200 | 2.0 | 3.0 | 0.20 | 0.47 | 0.20 | 97 | 1016.0 |
| 20260903050608 | 67 | 200 | 2.0 | 3.0 | 0.20 | 0.47 | 0.20 | 97 | 1016.0 |
| 20260903050419 | 67 | 200 | 2.0 | 3.0 | 0.19 | 0.46 | 0.19 | 97 | 1016.2 |
| 20260903050114 | 67 | 200 | 1.0 | 3.0 | 0.19 | 0.46 | 0.19 | 97 | 1016.4 |
| 20260903045918 | 67 | 200 | 0.0 | 2.0 | 0.19 | 0.46 | 0.19 | 97 | 1016.6 |
| 20260903045611 | 67 | 200 | 0.0 | 2.0 | 0.18 | 0.45 | 0.18 | 97 | 1016.9 |
| 20260903045416 | 67 | 200 | 0.0 | 2.0 | 0.18 | 0.45 | 0.18 | 97 | 1016.9 |
| 20260903045117 | 67 | 200 | 1.0 | 2.0 | 0.18 | 0.45 | 0.18 | 97 | 1016.9 |
| 20260903044922 | 67 | 200 | 0.0 | 2.0 | 0.17 | 0.44 | 0.17 | 97 | 1016.9 |
| 20260903044616 | 67 | 200 | 1.0 | 2.0 | 0.17 | 0.44 | 0.17 | 97 | 1017.3 |
| 20260903044421 | 67 | 200 | 1.0 | 2.0 | 0.16 | 0.43 | 0.16 | 97 | 1017.4 |
| 20260903044142 | 67 | 200 | 0.0 | 3.0 | 0.15 | 0.42 | 0.15 | 97 | 1017.6 |
| 20260903043906 | 67 | 200 | 1.0 | 3.0 | 0.14 | 0.41 | 0.14 | 97 | 1017.6 |
| 20260903043647 | 67 | 200 | 1.0 | 3.0 | 0.14 | 0.41 | 0.14 | 97 | 1017.6 |
| 20260903043431 | 67 | 200 | 1.0 | 3.0 | 0.13 | 0.40 | 0.13 | 97 | 1017.6 |
| 20260903043104 | 67 | 200 | 1.0 | 3.0 | 0.10 | 0.37 | 0.10 | 97 | 1017.7 |
| 20260903042909 | 67 | 200 | 1.0 | 3.0 | 0.07 | 0.34 | 0.07 | 97 | 1017.8 |
| 20260903042623 | 67 | 200 | 2.0 | 3.0 | 0.03 | 0.30 | 0.03 | 97 | 1018.3 |
| 20260903042408 | 67 | 200 | 1.0 | 3.0 | 0.02 | 0.29 | 0.02 | 97 | 1018.5 |
| 20260903042128 | 67 | 142 | 0.0 | 1.0 | 0.01 | 0.28 | 0.01 | 97 | 1018.4 |
| 20260903041913 | 68 | 142 | 0.0 | 1.0 | 0.01 | 0.28 | 0.01 | 97 | 1018.0 |
| 20260903041607 | 68 | 142 | 0.0 | 1.0 | 0.00 | 0.27 | 0.00 | 97 | 1017.7 |
| 20260903041412 | 67 | 142 | 0.0 | 1.0 | 0.00 | 0.27 | 0.00 | 97 | 1017.6 |
| 20260903041107 | 67 | 142 | 0.0 | 0.0 | 0.00 | 0.27 | 0.00 | 97 | 1017.5 |
| 20260903040918 | 67 | 142 | 0.0 | 0.0 | 0.00 | 0.27 | 0.00 | 97 | 1017.6 |
| 20260903040612 | 67 | 142 | 0.0 | 0.0 | 0.00 | 0.27 | 0.00 | 97 | 1017.7 |
| 20260903040417 | 67 | 142 | 0.0 | 1.0 | 0.00 | 0.27 | 0.00 | 97 | 1017.7 |
| 20260903040111 | 67 | 142 | 0.0 | 1.0 | 0.00 | 0.27 | 0.00 | 97 | 1017.7 |
| 20260903035917 | 67 | 142 | 0.0 | 1.0 | 0.00 | 0.27 | 0.00 | 98 | 1017.7 |
| 20260903035608 | 67 | 142 | 0.0 | 1.0 | 0.00 | 0.27 | 0.00 | 97 | 1017.6 |
| 20260903035419 | 67 | 142 | 0.0 | 1.0 | 0.00 | 0.27 | 0.00 | 97 | 1017.5 |
| 20260903035113 | 67 | 142 | 0.0 | 1.0 | 0.00 | 0.27 | 0.00 | 97 | 1017.5 |
| 20260903034918 | 67 | 142 | 0.0 | 1.0 | 0.00 | 0.27 | 0.27 | 97 | 1017.5 |
| 20260903034639 | 67 | 142 | 0.0 | 1.0 | 0.00 | 0.27 | 0.27 | 97 | 1017.4 |
| 20260903034423 | 67 | 142 | 0.0 | 0.0 | 0.00 | 0.27 | 0.27 | 97 | 1017.4 |
| 20260903034117 | 67 | 142 | 0.0 | 0.0 | 0.00 | 0.27 | 0.27 | 97 | 1017.2 |
| 20260903033922 | 67 | 142 | 0.0 | 1.0 | 0.00 | 0.27 | 0.27 | 97 | 1017.0 |
| 20260903033617 | 67 | 142 | 0.0 | 1.0 | 0.00 | 0.27 | 0.27 | 97 | 1017.0 |
| 20260903033428 | 67 | 142 | 0.0 | 1.0 | 0.00 | 0.27 | 0.27 | 97 | 1017.1 |
| 20260903033122 | 67 | 142 | 0.0 | 1.0 | 0.00 | 0.27 | 0.27 | 97 | 1017.0 |
| 20260903032928 | 67 | 142 | 0.0 | 1.0 | 0.00 | 0.27 | 0.27 | 97 | 1017.0 |
| 20260903032649 | 67 | 142 | 1.0 | 1.0 | 0.00 | 0.27 | 0.27 | 97 | 1017.2 |
| 20260903032433 | 67 | 142 | 0.0 | 1.0 | 0.00 | 0.27 | 0.27 | 97 | 1017.3 |
| 20260903032106 | 67 | 142 | 0.0 | 2.0 | 0.00 | 0.27 | 0.27 | 97 | 1017.3 |
| 20260903031911 | 67 | 142 | 0.0 | 2.0 | 0.00 | 0.27 | 0.27 | 97 | 1017.3 |
| 20260903031611 | 67 | 142 | 0.0 | 2.0 | 0.00 | 0.27 | 0.27 | 97 | 1017.2 |
| 20260903031417 | 67 | 142 | 0.0 | 2.0 | 0.00 | 0.27 | 0.27 | 97 | 1017.2 |
| 20260903031111 | 67 | 142 | 1.0 | 2.0 | 0.00 | 0.27 | 0.27 | 97 | 1017.3 |
| 20260903030916 | 68 | 142 | 1.0 | 2.0 | 0.00 | 0.27 | 0.27 | 97 | 1017.3 |
| 20260903030616 | 68 | 142 | 0.0 | 2.0 | 0.00 | 0.27 | 0.27 | 97 | 1017.2 |
| 20260903030421 | 68 | 142 | 0.0 | 2.0 | 0.00 | 0.27 | 0.27 | 97 | 1017.4 |
| 20260903030114 | 68 | 142 | 1.0 | 2.0 | 0.00 | 0.27 | 0.27 | 97 | 1017.2 |
| 20260903025919 | 67 | 141 | 1.0 | 2.0 | 0.00 | 0.27 | 0.27 | 97 | 1017.1 |
| 20260903025613 | 67 | 141 | 0.0 | 0.0 | 0.00 | 0.27 | 0.27 | 97 | 1017.0 |
| 20260903025423 | 67 | 141 | 0.0 | 1.0 | 0.00 | 0.27 | 0.27 | 97 | 1017.1 |
| 20260903025118 | 67 | 141 | 0.0 | 1.0 | 0.00 | 0.27 | 0.27 | 97 | 1017.2 |
| 20260903024923 | 67 | 141 | 0.0 | 1.0 | 0.00 | 0.27 | 0.27 | 97 | 1017.3 |
| 20260903024617 | 67 | 141 | 0.0 | 1.0 | 0.00 | 0.27 | 0.27 | 97 | 1017.4 |
| 20260903024422 | 67 | 141 | 0.0 | 0.0 | 0.00 | 0.27 | 0.27 | 97 | 1017.4 |
| 20260903024124 | 67 | 141 | 0.0 | 0.0 | 0.00 | 0.27 | 0.27 | 97 | 1017.4 |
| 20260903023927 | 67 | 141 | 0.0 | 0.0 | 0.00 | 0.27 | 0.27 | 97 | 1017.3 |
| 20260903023622 | 67 | 141 | 0.0 | 1.0 | 0.00 | 0.27 | 0.27 | 97 | 1017.1 |
| 20260903023408 | 67 | 141 | 0.0 | 1.0 | 0.00 | 0.27 | 0.27 | 97 | 1017.2 |
| 20260903023149 | 67 | 141 | 0.0 | 1.0 | 0.00 | 0.27 | 0.27 | 97 | 1017.2 |
| 20260903022913 | 67 | 141 | 0.0 | 1.0 | 0.00 | 0.27 | 0.27 | 97 | 1017.3 |
| 20260903022606 | 67 | 141 | 0.0 | 0.0 | 0.00 | 0.27 | 0.27 | 97 | 1017.2 |
| 20260903022411 | 67 | 141 | 0.0 | 1.0 | 0.00 | 0.27 | 0.27 | 97 | 1017.2 |
| 20260903022127 | 67 | 141 | 0.0 | 1.0 | 0.00 | 0.27 | 0.27 | 97 | 1017.3 |
| 20260903021934 | 67 | 141 | 0.0 | 1.0 | 0.00 | 0.27 | 0.27 | 97 | 1017.5 |
| 20260903021611 | 67 | 141 | 0.0 | 0.0 | 0.00 | 0.27 | 0.27 | 97 | 1017.4 |
| 20260903021418 | 67 | 141 | 0.0 | 0.0 | 0.00 | 0.27 | 0.27 | 96 | 1017.4 |
| 20260903021116 | 67 | 141 | 0.0 | 0.0 | 0.00 | 0.27 | 0.27 | 96 | 1017.7 |
| 20260903020917 | 68 | 141 | 0.0 | 1.0 | 0.00 | 0.27 | 0.27 | 96 | 1017.7 |
| 20260903020616 | 68 | 141 | 0.0 | 1.0 | 0.00 | 0.27 | 0.27 | 97 | 1017.7 |
| 20260903020415 | 68 | 141 | 0.0 | 1.0 | 0.00 | 0.27 | 0.27 | 97 | 1017.7 |
| 20260903020119 | 68 | 141 | 0.0 | 1.0 | 0.00 | 0.27 | 0.27 | 97 | 1017.8 |
| 20260903015920 | 67 | 141 | 0.0 | 1.0 | 0.00 | 0.27 | 0.27 | 97 | 1017.7 |
| 20260903015619 | 67 | 141 | 0.0 | 1.0 | 0.00 | 0.27 | 0.27 | 97 | 1017.7 |
| 20260903015419 | 67 | 141 | 0.0 | 0.0 | 0.00 | 0.27 | 0.27 | 97 | 1017.7 |
| 20260903015145 | 67 | 141 | 0.0 | 0.0 | 0.00 | 0.27 | 0.27 | 97 | 1017.7 |
| 20260903014945 | 67 | 141 | 0.0 | 1.0 | 0.00 | 0.27 | 0.27 | 97 | 1017.6 |
| 20260903014650 | 67 | 141 | 0.0 | 1.0 | 0.00 | 0.27 | 0.27 | 97 | 1017.5 |
| 20260903014410 | 67 | 141 | 0.0 | 1.0 | 0.00 | 0.27 | 0.27 | 97 | 1017.3 |
| 20260903014128 | 67 | 141 | 0.0 | 1.0 | 0.00 | 0.27 | 0.27 | 97 | 1017.2 |
| 20260903013935 | 67 | 141 | 0.0 | 0.0 | 0.00 | 0.27 | 0.27 | 97 | 1017.2 |
| 20260903013612 | 67 | 141 | 0.0 | 0.0 | 0.00 | 0.27 | 0.27 | 97 | 1017.4 |
| 20260903013413 | 67 | 141 | 0.0 | 0.0 | 0.00 | 0.27 | 0.27 | 97 | 1017.5 |
| 20260903013139 | 67 | 141 | 0.0 | 2.0 | 0.00 | 0.27 | 0.27 | 97 | 1017.7 |
| 20260903012916 | 67 | 141 | 0.0 | 5.0 | 0.00 | 0.27 | 0.27 | 97 | 1017.7 |
| 20260903012635 | 67 | 141 | 0.0 | 5.0 | 0.00 | 0.27 | 0.27 | 97 | 1017.6 |
| 20260903012420 | 67 | 141 | 0.0 | 5.0 | 0.00 | 0.27 | 0.27 | 97 | 1017.6 |
| 20260903012118 | 67 | 141 | 1.0 | 5.0 | 0.00 | 0.27 | 0.27 | 97 | 1017.5 |
| 20260903011919 | 67 | 141 | 0.0 | 0.0 | 0.00 | 0.27 | 0.27 | 97 | 1017.6 |
| 20260903011617 | 67 | 141 | 0.0 | 0.0 | 0.00 | 0.27 | 0.27 | 97 | 1017.7 |
| 20260903011424 | 67 | 141 | 0.0 | 0.0 | 0.00 | 0.27 | 0.27 | 97 | 1017.7 |
| 20260903011121 | 67 | 141 | 0.0 | 0.0 | 0.00 | 0.27 | 0.27 | 97 | 1017.7 |
| 20260903010922 | 67 | 141 | 0.0 | 0.0 | 0.00 | 0.27 | 0.27 | 97 | 1017.8 |
| 20260903010621 | 67 | 141 | 0.0 | 0.0 | 0.00 | 0.27 | 0.27 | 97 | 1017.9 |
| 20260903010422 | 67 | 141 | 0.0 | 0.0 | 0.00 | 0.27 | 0.27 | 97 | 1017.9 |
| 20260903010127 | 67 | 141 | 0.0 | 1.0 | 0.00 | 0.27 | 0.27 | 97 | 1018.0 |
| 20260903005907 | 67 | 141 | 0.0 | 1.0 | 0.00 | 0.27 | 0.27 | 97 | 1018.1 |
| 20260903005605 | 67 | 141 | 0.0 | 1.0 | 0.00 | 0.27 | 0.27 | 97 | 1018.2 |
| 20260903005405 | 67 | 141 | 0.0 | 1.0 | 0.00 | 0.27 | 0.27 | 97 | 1018.2 |
| 20260903005104 | 67 | 141 | 0.0 | 2.0 | 0.00 | 0.27 | 0.27 | 97 | 1018.0 |
| 20260903004911 | 67 | 141 | 0.0 | 3.0 | 0.00 | 0.27 | 0.27 | 97 | 1018.0 |
| 20260903004609 | 67 | 141 | 0.0 | 3.0 | 0.00 | 0.27 | 0.27 | 96 | 1017.9 |
| 20260903004431 | 67 | 141 | 1.0 | 3.0 | 0.00 | 0.27 | 0.27 | 96 | 1017.7 |
| 20260903004132 | 67 | 141 | 1.0 | 3.0 | 0.00 | 0.27 | 0.27 | 96 | 1017.9 |
| 20260903003937 | 67 | 141 | 0.0 | 2.0 | 0.00 | 0.27 | 0.27 | 96 | 1017.9 |
| 20260903003616 | 68 | 141 | 0.0 | 2.0 | 0.00 | 0.27 | 0.27 | 96 | 1018.0 |
| 20260903003421 | 68 | 141 | 1.0 | 2.0 | 0.00 | 0.27 | 0.27 | 96 | 1018.0 |
| 20260903003114 | 68 | 141 | 1.0 | 1.0 | 0.00 | 0.27 | 0.27 | 96 | 1018.0 |
| 20260903002919 | 68 | 141 | 0.0 | 1.0 | 0.00 | 0.27 | 0.27 | 97 | 1018.0 |
| 20260903002613 | 68 | 141 | 0.0 | 1.0 | 0.00 | 0.27 | 0.27 | 97 | 1018.2 |
| 20260903002424 | 68 | 141 | 0.0 | 1.0 | 0.00 | 0.27 | 0.27 | 97 | 1018.2 |
| 20260903002119 | 68 | 141 | 0.0 | 1.0 | 0.00 | 0.27 | 0.27 | 96 | 1018.1 |
| 20260903001924 | 68 | 141 | 0.0 | 1.0 | 0.00 | 0.27 | 0.27 | 96 | 1018.1 |
| 20260903001644 | 68 | 141 | 0.0 | 1.0 | 0.00 | 0.27 | 0.27 | 96 | 1018.0 |
| 20260903001407 | 68 | 141 | 0.0 | 1.0 | 0.00 | 0.27 | 0.27 | 96 | 1018.0 |
| 20260903001121 | 68 | 141 | 0.0 | 1.0 | 0.00 | 0.27 | 0.27 | 96 | 1018.0 |
| 20260903000906 | 68 | 141 | 0.0 | 1.0 | 0.00 | 0.27 | 0.27 | 96 | 1018.0 |
| 20260903000620 | 68 | 141 | 0.0 | 1.0 | 0.00 | 0.27 | 0.27 | 96 | 1017.9 |
| 20260903000405 | 68 | 141 | 0.0 | 1.0 | 0.00 | 0.27 | 0.27 | 97 | 1017.9 |
| 20260903000126 | 68 | 141 | 0.0 | 1.0 | 0.00 | 0.27 | 0.27 | 97 | 1017.8 |
| 20260902235931 | 67 | 141 | 0.0 | 1.0 | 0.00 | 0.27 | 0.27 | 96 | 1017.7 |
| 20260902235629 | 67 | 141 | 0.0 | 1.0 | 0.00 | 0.27 | 0.27 | 96 | 1017.5 |
| 20260902235408 | 68 | 141 | 0.0 | 1.0 | 0.00 | 0.27 | 0.27 | 96 | 1017.5 |
| 20260902235109 | 67 | 141 | 0.0 | 1.0 | 0.00 | 0.27 | 0.27 | 96 | 1017.4 |
| 20260902234914 | 68 | 141 | 0.0 | 1.0 | 0.00 | 0.27 | 0.27 | 96 | 1017.3 |
| 20260902234608 | 67 | 141 | 0.0 | 1.0 | 0.00 | 0.27 | 0.27 | 96 | 1017.4 |
| 20260902234413 | 67 | 141 | 0.0 | 1.0 | 0.00 | 0.27 | 0.27 | 96 | 1017.4 |
| 20260902234108 | 67 | 141 | 0.0 | 1.0 | 0.00 | 0.27 | 0.27 | 96 | 1017.4 |
| 20260902233919 | 67 | 141 | 0.0 | 0.0 | 0.00 | 0.27 | 0.27 | 96 | 1017.4 |
| 20260902233613 | 67 | 141 | 0.0 | 0.0 | 0.00 | 0.27 | 0.27 | 96 | 1017.4 |
| 20260902233418 | 67 | 141 | 0.0 | 1.0 | 0.00 | 0.27 | 0.27 | 96 | 1017.4 |
| 20260902233113 | 67 | 141 | 0.0 | 1.0 | 0.00 | 0.27 | 0.27 | 96 | 1017.4 |
| 20260902232918 | 68 | 141 | 0.0 | 1.0 | 0.00 | 0.27 | 0.27 | 96 | 1017.4 |
| 20260902232611 | 67 | 141 | 0.0 | 1.0 | 0.00 | 0.27 | 0.27 | 96 | 1017.4 |
| 20260902232422 | 68 | 141 | 0.0 | 2.0 | 0.00 | 0.27 | 0.27 | 96 | 1017.4 |
| 20260902232115 | 67 | 141 | 0.0 | 2.0 | 0.00 | 0.27 | 0.27 | 96 | 1017.6 |
| 20260902231948 | 67 | 141 | 0.0 | 2.0 | 0.00 | 0.27 | 0.27 | 96 | 1017.6 |
| 20260902231620 | 67 | 141 | 1.0 | 2.0 | 0.00 | 0.27 | 0.27 | 96 | 1017.5 |
| 20260902231405 | 68 | 141 | 1.0 | 2.0 | 0.00 | 0.27 | 0.27 | 96 | 1017.5 |
| 20260902231147 | 68 | 141 | 1.0 | 2.0 | 0.00 | 0.27 | 0.27 | 96 | 1017.5 |
| 20260902230904 | 68 | 141 | 1.0 | 2.0 | 0.00 | 0.27 | 0.27 | 96 | 1017.6 |
| 20260902230605 | 68 | 141 | 0.0 | 2.0 | 0.00 | 0.27 | 0.27 | 96 | 1017.6 |
| 20260902230426 | 68 | 141 | 0.0 | 2.0 | 0.00 | 0.27 | 0.27 | 96 | 1017.6 |
| 20260902230130 | 68 | 141 | 0.0 | 2.0 | 0.00 | 0.27 | 0.27 | 96 | 1017.5 |
| 20260902225911 | 68 | 141 | 1.0 | 2.0 | 0.00 | 0.27 | 0.27 | 96 | 1017.5 |
| 20260902225609 | 68 | 141 | 0.0 | 3.0 | 0.00 | 0.27 | 0.27 | 96 | 1017.5 |
| 20260902225410 | 68 | 141 | 0.0 | 3.0 | 0.00 | 0.27 | 0.27 | 96 | 1017.5 |
| 20260902225128 | 68 | 141 | 1.0 | 3.0 | 0.00 | 0.27 | 0.27 | 96 | 1017.6 |
| 20260902224914 | 68 | 141 | 1.0 | 5.0 | 0.00 | 0.49 | 0.27 | 96 | 1017.6 |
| 20260902224611 | 68 | 139 | 2.0 | 5.0 | 0.00 | 0.49 | 0.27 | 96 | 1017.6 |
| 20260902224411 | 68 | 154 | 2.0 | 5.0 | 0.00 | 0.49 | 0.27 | 96 | 1017.6 |
| 20260902224135 | 68 | 129 | 1.0 | 4.0 | 0.00 | 0.49 | 0.27 | 96 | 1017.6 |
| 20260902223915 | 68 | 129 | 1.0 | 4.0 | 0.00 | 0.49 | 0.27 | 96 | 1017.7 |
| 20260902223613 | 68 | 129 | 2.0 | 3.0 | 0.00 | 0.49 | 0.27 | 96 | 1017.8 |
| 20260902223413 | 68 | 131 | 0.0 | 2.0 | 0.00 | 0.49 | 0.27 | 96 | 1017.9 |
| 20260902223112 | 68 | 132 | 0.0 | 2.0 | 0.00 | 0.49 | 0.27 | 96 | 1018.0 |
| 20260902222940 | 68 | 132 | 1.0 | 2.0 | 0.00 | 0.49 | 0.27 | 96 | 1018.1 |
| 20260902222617 | 68 | 131 | 0.0 | 0.0 | 0.00 | 0.49 | 0.27 | 96 | 1018.1 |
| 20260902222445 | 68 | 131 | 0.0 | 0.0 | 0.00 | 0.49 | 0.27 | 96 | 1018.1 |
| 20260902222144 | 68 | 131 | 0.0 | 0.0 | 0.00 | 0.49 | 0.27 | 96 | 1018.2 |
| 20260902221931 | 68 | 131 | 0.0 | 0.0 | 0.00 | 0.49 | 0.27 | 96 | 1018.2 |
| 20260902221608 | 68 | 131 | 0.0 | 0.0 | 0.00 | 0.49 | 0.27 | 96 | 1018.2 |
| 20260902221430 | 68 | 131 | 0.0 | 1.0 | 0.00 | 0.49 | 0.27 | 96 | 1018.1 |
| 20260902221108 | 68 | 131 | 0.0 | 4.0 | 0.00 | 0.49 | 0.27 | 96 | 1018.0 |
| 20260902220915 | 68 | 131 | 0.0 | 4.0 | 0.00 | 0.49 | 0.27 | 96 | 1018.0 |
| 20260902220613 | 68 | 131 | 1.0 | 4.0 | 0.00 | 0.49 | 0.27 | 96 | 1018.1 |
| 20260902220414 | 68 | 131 | 1.0 | 4.0 | 0.00 | 0.49 | 0.27 | 96 | 1018.1 |
| 20260902220133 | 68 | 124 | 1.0 | 3.0 | 0.00 | 0.49 | 0.27 | 96 | 1018.2 |
| 20260902215919 | 68 | 124 | 1.0 | 3.0 | 0.00 | 0.49 | 0.27 | 96 | 1018.2 |
| 20260902215639 | 68 | 124 | 1.0 | 3.0 | 0.00 | 0.49 | 0.27 | 96 | 1018.2 |
| 20260902215419 | 68 | 124 | 1.0 | 3.0 | 0.00 | 0.49 | 0.27 | 96 | 1018.1 |
| 20260902215123 | 68 | 124 | 2.0 | 3.0 | 0.00 | 0.49 | 0.27 | 96 | 1018.1 |
| 20260902214924 | 68 | 124 | 1.0 | 3.0 | 0.00 | 0.49 | 0.27 | 97 | 1018.1 |
| 20260902214622 | 68 | 125 | 1.0 | 3.0 | 0.00 | 0.49 | 0.27 | 97 | 1018.2 |
| 20260902214423 | 68 | 125 | 1.0 | 3.0 | 0.00 | 0.49 | 0.27 | 96 | 1018.2 |
| 20260902214121 | 68 | 125 | 1.0 | 3.0 | 0.00 | 0.49 | 0.27 | 96 | 1018.3 |
| 20260902213928 | 68 | 122 | 0.0 | 3.0 | 0.00 | 0.49 | 0.27 | 96 | 1018.3 |
| 20260902213627 | 68 | 121 | 1.0 | 3.0 | 0.00 | 0.49 | 0.27 | 96 | 1018.4 |
| 20260902213407 | 68 | 121 | 2.0 | 3.0 | 0.00 | 0.49 | 0.27 | 96 | 1018.4 |
| 20260902213106 | 68 | 121 | 1.0 | 3.0 | 0.00 | 0.49 | 0.27 | 96 | 1018.4 |
| 20260902212907 | 68 | 121 | 1.0 | 3.0 | 0.00 | 0.49 | 0.27 | 96 | 1018.3 |
| 20260902212605 | 68 | 121 | 0.0 | 2.0 | 0.00 | 0.49 | 0.27 | 97 | 1018.2 |
| 20260902212406 | 68 | 121 | 1.0 | 2.0 | 0.00 | 0.49 | 0.27 | 97 | 1018.3 |
| 20260902212111 | 68 | 119 | 1.0 | 3.0 | 0.00 | 0.49 | 0.27 | 96 | 1018.3 |
| 20260902211911 | 68 | 119 | 1.0 | 3.0 | 0.00 | 0.49 | 0.27 | 96 | 1018.2 |
| 20260902211609 | 68 | 119 | 2.0 | 3.0 | 0.00 | 0.49 | 0.27 | 96 | 1018.2 |
| 20260902211437 | 68 | 119 | 1.0 | 3.0 | 0.00 | 0.49 | 0.27 | 97 | 1018.3 |
| 20260902211114 | 68 | 119 | 1.0 | 3.0 | 0.00 | 0.49 | 0.27 | 96 | 1018.2 |
| 20260902210915 | 68 | 119 | 0.0 | 2.0 | 0.00 | 0.49 | 0.27 | 97 | 1018.2 |
| 20260902210614 | 68 | 119 | 1.0 | 2.0 | 0.00 | 0.49 | 0.27 | 97 | 1018.2 |
| 20260902210415 | 68 | 119 | 1.0 | 2.0 | 0.00 | 0.49 | 0.27 | 97 | 1018.3 |
| 20260902210119 | 68 | 118 | 1.0 | 2.0 | 0.00 | 0.49 | 0.27 | 97 | 1018.2 |
| 20260902205920 | 68 | 118 | 0.0 | 2.0 | 0.00 | 0.49 | 0.27 | 97 | 1018.2 |
| 20260902205635 | 68 | 118 | 0.0 | 3.0 | 0.00 | 0.49 | 0.27 | 97 | 1018.1 |
| 20260902205426 | 68 | 118 | 0.0 | 4.0 | 0.00 | 0.49 | 0.27 | 97 | 1018.1 |
| 20260902205107 | 68 | 118 | 1.0 | 4.0 | 0.00 | 0.49 | 0.27 | 97 | 1018.1 |
| 20260902204906 | 68 | 118 | 1.0 | 4.0 | 0.00 | 0.49 | 0.27 | 97 | 1018.2 |
| 20260902204604 | 68 | 110 | 1.0 | 2.0 | 0.00 | 0.49 | 0.27 | 97 | 1018.2 |
| 20260902204404 | 68 | 110 | 1.0 | 2.0 | 0.00 | 0.49 | 0.27 | 97 | 1018.3 |
| 20260902204125 | 68 | 110 | 1.0 | 2.0 | 0.00 | 0.49 | 0.27 | 97 | 1018.3 |
| 20260902203930 | 68 | 110 | 1.0 | 3.0 | 0.00 | 0.49 | 0.27 | 97 | 1018.2 |
| 20260902203623 | 68 | 110 | 1.0 | 3.0 | 0.00 | 0.49 | 0.27 | 97 | 1018.2 |
| 20260902203407 | 68 | 110 | 1.0 | 3.0 | 0.00 | 0.49 | 0.27 | 97 | 1018.2 |
| 20260902203128 | 68 | 110 | 1.0 | 4.0 | 0.00 | 0.49 | 0.27 | 97 | 1018.2 |
| 20260902202913 | 68 | 110 | 1.0 | 4.0 | 0.00 | 0.49 | 0.27 | 97 | 1018.2 |
| 20260902202606 | 68 | 110 | 2.0 | 4.0 | 0.00 | 0.49 | 0.27 | 97 | 1018.2 |
| 20260902202411 | 68 | 110 | 1.0 | 4.0 | 0.00 | 0.49 | 0.27 | 97 | 1018.2 |
| 20260902202105 | 68 | 112 | 1.0 | 4.0 | 0.00 | 0.49 | 0.27 | 97 | 1018.1 |
| 20260902201910 | 68 | 112 | 2.0 | 4.0 | 0.00 | 0.49 | 0.27 | 97 | 1018.1 |
| 20260902201611 | 68 | 134 | 1.0 | 4.0 | 0.00 | 0.49 | 0.27 | 97 | 1018.0 |
| 20260902201437 | 68 | 6 | 1.0 | 2.0 | 0.00 | 0.49 | 0.27 | 97 | 1018.0 |
| 20260902201118 | 68 | 6 | 2.0 | 2.0 | 0.00 | 0.49 | 0.27 | 97 | 1018.0 |
| 20260902200921 | 68 | 6 | 1.0 | 3.0 | 0.00 | 0.49 | 0.27 | 97 | 1018.0 |
| 20260902200616 | 68 | 6 | 1.0 | 3.0 | 0.00 | 0.49 | 0.27 | 97 | 1018.1 |
| 20260902200420 | 68 | 6 | 1.0 | 3.0 | 0.00 | 0.49 | 0.27 | 97 | 1018.1 |
| 20260902200114 | 68 | 6 | 1.0 | 3.0 | 0.00 | 0.49 | 0.27 | 97 | 1018.2 |
| 20260902195925 | 68 | 6 | 0.0 | 3.0 | 0.00 | 0.49 | 0.27 | 97 | 1018.3 |
| 20260902195619 | 68 | 6 | 1.0 | 3.0 | 0.03 | 0.49 | 0.27 | 98 | 1018.1 |
| 20260902195423 | 68 | 6 | 1.0 | 2.0 | 0.06 | 0.49 | 0.27 | 98 | 1018.0 |
| 20260902195117 | 68 | 6 | 0.0 | 2.0 | 0.08 | 0.49 | 0.27 | 98 | 1018.1 |
| 20260902194921 | 68 | 6 | 0.0 | 2.0 | 0.12 | 0.49 | 0.27 | 98 | 1018.2 |
| 20260902194615 | 68 | 6 | 1.0 | 2.0 | 0.18 | 0.49 | 0.27 | 98 | 1018.2 |
| 20260902194426 | 67 | 6 | 0.0 | 2.0 | 0.19 | 0.49 | 0.27 | 97 | 1018.3 |
| 20260902194121 | 67 | 6 | 0.0 | 2.0 | 0.20 | 0.49 | 0.27 | 97 | 1018.4 |
| 20260902193906 | 67 | 6 | 1.0 | 2.0 | 0.21 | 0.49 | 0.27 | 97 | 1018.5 |
| 20260902193620 | 67 | 6 | 1.0 | 2.0 | 0.23 | 0.49 | 0.27 | 97 | 1018.6 |
| 20260902193405 | 67 | 6 | 0.0 | 2.0 | 0.25 | 0.49 | 0.27 | 97 | 1018.5 |
| 20260902193125 | 67 | 6 | 0.0 | 2.0 | 0.25 | 0.49 | 0.27 | 97 | 1018.5 |
| 20260902192912 | 67 | 6 | 1.0 | 2.0 | 0.25 | 0.49 | 0.27 | 97 | 1018.6 |
| 20260902192605 | 67 | 6 | 0.0 | 2.0 | 0.25 | 0.49 | 0.27 | 97 | 1018.6 |
| 20260902192410 | 67 | 6 | 1.0 | 2.0 | 0.25 | 0.49 | 0.27 | 97 | 1018.6 |
| 20260902192126 | 67 | 6 | 1.0 | 2.0 | 0.25 | 0.49 | 0.27 | 97 | 1018.7 |
| 20260902191936 | 67 | 6 | 1.0 | 2.0 | 0.25 | 0.49 | 0.27 | 97 | 1018.7 |
| 20260902191609 | 67 | 6 | 1.0 | 2.0 | 0.25 | 0.49 | 0.27 | 97 | 1018.8 |
| 20260902191420 | 67 | 6 | 1.0 | 2.0 | 0.25 | 0.49 | 0.27 | 97 | 1018.8 |
| 20260902191115 | 67 | 6 | 1.0 | 3.0 | 0.25 | 0.49 | 0.27 | 97 | 1018.9 |
| 20260902190920 | 67 | 6 | 1.0 | 4.0 | 0.25 | 0.49 | 0.27 | 97 | 1018.9 |
| 20260902190614 | 67 | 6 | 1.0 | 4.0 | 0.25 | 0.49 | 0.27 | 97 | 1018.9 |
| 20260902190419 | 67 | 6 | 1.0 | 4.0 | 0.25 | 0.49 | 0.27 | 97 | 1018.9 |
| 20260902190140 | 67 | 6 | 2.0 | 4.0 | 0.25 | 0.49 | 0.27 | 97 | 1019.0 |
| 20260902185925 | 67 | 6 | 3.0 | 4.0 | 0.25 | 0.49 | 0.27 | 96 | 1019.1 |
| 20260902185625 | 67 | 3 | 1.0 | 6.0 | 0.22 | 0.46 | 0.24 | 96 | 1019.3 |
| 20260902185410 | 67 | 3 | 2.0 | 6.0 | 0.19 | 0.43 | 0.21 | 96 | 1019.4 |
| 20260902185123 | 67 | 3 | 2.0 | 6.0 | 0.16 | 0.40 | 0.19 | 96 | 1019.4 |
| 20260902184908 | 67 | 3 | 3.0 | 6.0 | 0.12 | 0.36 | 0.14 | 96 | 1019.4 |
| 20260902184648 | 67 | 2 | 2.0 | 5.0 | 0.07 | 0.31 | 0.09 | 96 | 1019.5 |
| 20260902184412 | 67 | 356 | 3.0 | 5.0 | 0.06 | 0.30 | 0.08 | 95 | 1019.5 |
| 20260902184107 | 67 | 360 | 1.0 | 9.0 | 0.05 | 0.29 | 0.07 | 95 | 1019.5 |
| 20260902183912 | 67 | 360 | 2.0 | 9.0 | 0.04 | 0.28 | 0.06 | 95 | 1019.5 |
| 20260902183604 | 67 | 4 | 5.0 | 9.0 | 0.01 | 0.25 | 0.03 | 95 | 1019.6 |
| 20260902183432 | 67 | 335 | 5.0 | 9.0 | 0.00 | 0.24 | 0.02 | 95 | 1019.5 |
| 20260902183110 | 67 | 356 | 4.0 | 6.0 | 0.00 | 0.24 | 0.02 | 95 | 1019.3 |
| 20260902182910 | 68 | 80 | 3.0 | 4.0 | 0.00 | 0.24 | 0.02 | 95 | 1019.1 |
| 20260902182609 | 67 | 108 | 1.0 | 3.0 | 0.00 | 0.24 | 0.02 | 95 | 1019.1 |
| 20260902182417 | 67 | 109 | 0.0 | 2.0 | 0.00 | 0.24 | 0.02 | 95 | 1019.0 |
| 20260902182114 | 67 | 109 | 0.0 | 2.0 | 0.00 | 0.24 | 0.02 | 94 | 1019.1 |
| 20260902181915 | 67 | 109 | 0.0 | 2.0 | 0.00 | 0.24 | 0.02 | 94 | 1019.0 |
| 20260902181614 | 67 | 109 | 1.0 | 2.0 | 0.00 | 0.24 | 0.02 | 94 | 1019.0 |
| 20260902181415 | 67 | 109 | 1.0 | 2.0 | 0.00 | 0.24 | 0.02 | 94 | 1019.0 |
| 20260902181118 | 67 | 109 | 1.0 | 2.0 | 0.00 | 0.24 | 0.02 | 94 | 1019.1 |
| 20260902180919 | 68 | 109 | 1.0 | 2.0 | 0.00 | 0.24 | 0.02 | 94 | 1019.1 |
| 20260902180638 | 68 | 109 | 0.0 | 1.0 | 0.00 | 0.24 | 0.02 | 94 | 1019.2 |
| 20260902180425 | 68 | 109 | 0.0 | 1.0 | 0.00 | 0.24 | 0.02 | 94 | 1019.2 |
| 20260902180123 | 68 | 109 | 0.0 | 2.0 | 0.00 | 0.24 | 0.02 | 95 | 1019.2 |
| 20260902175924 | 68 | 109 | 0.0 | 2.0 | 0.00 | 0.24 | 0.02 | 95 | 1019.3 |
| 20260902175627 | 67 | 109 | 1.0 | 2.0 | 0.00 | 0.24 | 0.02 | 95 | 1019.2 |
| 20260902175429 | 67 | 109 | 1.0 | 1.0 | 0.00 | 0.24 | 0.02 | 94 | 1019.2 |
| 20260902175107 | 67 | 109 | 0.0 | 1.0 | 0.00 | 0.24 | 0.02 | 95 | 1019.1 |
| 20260902174908 | 67 | 109 | 0.0 | 3.0 | 0.00 | 0.41 | 0.02 | 95 | 1019.0 |
| 20260902174606 | 67 | 109 | 0.0 | 3.0 | 0.00 | 0.41 | 0.02 | 94 | 1018.9 |
| 20260902174413 | 67 | 109 | 0.0 | 3.0 | 0.00 | 0.41 | 0.02 | 94 | 1019.0 |
| 20260902174111 | 67 | 109 | 0.0 | 2.0 | 0.00 | 0.41 | 0.02 | 95 | 1019.0 |
| 20260902173912 | 67 | 109 | 1.0 | 2.0 | 0.00 | 0.41 | 0.02 | 94 | 1019.0 |
| 20260902173610 | 67 | 109 | 1.0 | 2.0 | 0.00 | 0.41 | 0.02 | 95 | 1018.9 |
| 20260902173411 | 67 | 109 | 0.0 | 1.0 | 0.00 | 0.41 | 0.02 | 95 | 1018.9 |
| 20260902173108 | 67 | 109 | 0.0 | 1.0 | 0.00 | 0.41 | 0.02 | 95 | 1019.0 |
| 20260902172915 | 67 | 109 | 0.0 | 0.0 | 0.00 | 0.41 | 0.02 | 95 | 1019.0 |
| 20260902172612 | 67 | 109 | 0.0 | 1.0 | 0.00 | 0.41 | 0.02 | 95 | 1019.1 |
| 20260902172413 | 67 | 109 | 0.0 | 1.0 | 0.00 | 0.41 | 0.02 | 95 | 1019.1 |
| 20260902172139 | 67 | 109 | 0.0 | 1.0 | 0.00 | 0.41 | 0.02 | 95 | 1019.1 |
| 20260902171919 | 67 | 109 | 1.0 | 2.0 | 0.00 | 0.41 | 0.02 | 95 | 1019.2 |
| 20260902171616 | 67 | 109 | 0.0 | 2.0 | 0.00 | 0.41 | 0.02 | 96 | 1019.2 |
| 20260902171417 | 67 | 109 | 0.0 | 2.0 | 0.00 | 0.41 | 0.02 | 96 | 1019.1 |
| 20260902171122 | 67 | 109 | 1.0 | 2.0 | 0.00 | 0.41 | 0.02 | 96 | 1019.1 |
| 20260902170922 | 67 | 109 | 0.0 | 2.0 | 0.00 | 0.41 | 0.02 | 96 | 1019.2 |
| 20260902170617 | 67 | 109 | 1.0 | 3.0 | 0.00 | 0.41 | 0.02 | 96 | 1019.2 |
| 20260902170416 | 67 | 109 | 1.0 | 3.0 | 0.00 | 0.41 | 0.02 | 96 | 1019.2 |
| 20260902170139 | 66 | 109 | 1.0 | 3.0 | 0.00 | 0.41 | 0.02 | 96 | 1019.2 |
| 20260902165919 | 66 | 109 | 2.0 | 3.0 | 0.00 | 0.41 | 0.02 | 96 | 1019.2 |
| 20260902165618 | 67 | 109 | 1.0 | 3.0 | 0.00 | 0.41 | 0.02 | 96 | 1019.2 |
| 20260902165419 | 67 | 109 | 1.0 | 3.0 | 0.00 | 0.41 | 0.02 | 96 | 1019.2 |
| 20260902165124 | 66 | 109 | 1.0 | 3.0 | 0.00 | 0.41 | 0.02 | 96 | 1019.2 |
| 20260902164924 | 67 | 108 | 2.0 | 3.0 | 0.00 | 0.41 | 0.02 | 97 | 1019.2 |
| 20260902164623 | 67 | 108 | 2.0 | 3.0 | 0.00 | 0.41 | 0.02 | 97 | 1019.1 |
| 20260902164445 | 67 | 108 | 2.0 | 4.0 | 0.00 | 0.41 | 0.02 | 97 | 1019.2 |
| 20260902164128 | 66 | 108 | 2.0 | 4.0 | 0.00 | 0.41 | 0.02 | 97 | 1019.2 |
| 20260902163930 | 66 | 106 | 1.0 | 4.0 | 0.00 | 0.41 | 0.02 | 97 | 1019.2 |
| 20260902163608 | 66 | 60 | 1.0 | 3.0 | 0.00 | 0.41 | 0.02 | 97 | 1019.2 |
| 20260902163409 | 66 | 56 | 1.0 | 2.0 | 0.00 | 0.41 | 0.02 | 97 | 1019.3 |
| 20260902163116 | 66 | 56 | 0.0 | 2.0 | 0.00 | 0.41 | 0.02 | 97 | 1019.4 |
| 20260902162915 | 66 | 56 | 0.0 | 2.0 | 0.00 | 0.41 | 0.02 | 97 | 1019.5 |
| 20260902162613 | 66 | 56 | 0.0 | 2.0 | 0.00 | 0.41 | 0.02 | 97 | 1019.6 |
| 20260902162414 | 66 | 56 | 0.0 | 2.0 | 0.00 | 0.41 | 0.02 | 97 | 1019.6 |
| 20260902162112 | 66 | 56 | 0.0 | 2.0 | 0.00 | 0.41 | 0.02 | 97 | 1019.7 |
| 20260902161921 | 66 | 56 | 0.0 | 2.0 | 0.00 | 0.41 | 0.02 | 98 | 1019.7 |
| 20260902161617 | 65 | 56 | 0.0 | 3.0 | 0.00 | 0.41 | 0.02 | 97 | 1019.8 |
| 20260902161417 | 65 | 56 | 0.0 | 3.0 | 0.00 | 0.41 | 0.02 | 97 | 1019.7 |
| 20260902161116 | 65 | 56 | 1.0 | 3.0 | 0.00 | 0.41 | 0.02 | 97 | 1019.7 |
| 20260902160925 | 65 | 56 | 1.0 | 3.0 | 0.00 | 0.41 | 0.02 | 97 | 1019.7 |
| 20260902160642 | 65 | 56 | 1.0 | 3.0 | 0.00 | 0.41 | 0.02 | 97 | 1019.6 |
| 20260902160422 | 65 | 56 | 0.0 | 2.0 | 0.00 | 0.41 | 0.02 | 98 | 1019.5 |
| 20260902160120 | 65 | 56 | 0.0 | 2.0 | 0.00 | 0.41 | 0.02 | 98 | 1019.5 |
| 20260902155928 | 65 | 56 | 1.0 | 2.0 | 0.00 | 0.41 | 0.02 | 97 | 1019.6 |
| 20260902155627 | 65 | 56 | 1.0 | 2.0 | 0.00 | 0.41 | 0.02 | 98 | 1019.5 |
| 20260902155406 | 65 | 56 | 1.0 | 2.0 | 0.00 | 0.41 | 0.02 | 98 | 1019.4 |
| 20260902155111 | 65 | 56 | 1.0 | 2.0 | 0.00 | 0.41 | 0.02 | 98 | 1019.4 |
| 20260902154912 | 65 | 56 | 1.0 | 2.0 | 0.00 | 0.51 | 0.02 | 98 | 1019.4 |
| 20260902154610 | 65 | 56 | 0.0 | 3.0 | 0.00 | 0.51 | 0.02 | 98 | 1019.5 |
| 20260902154410 | 65 | 56 | 1.0 | 3.0 | 0.00 | 0.51 | 0.02 | 98 | 1019.5 |
| 20260902154109 | 65 | 56 | 1.0 | 3.0 | 0.00 | 0.51 | 0.02 | 98 | 1019.4 |
| 20260902153916 | 65 | 56 | 1.0 | 3.0 | 0.00 | 0.51 | 0.02 | 98 | 1019.4 |
| 20260902153614 | 65 | 56 | 2.0 | 4.0 | 0.00 | 0.51 | 0.02 | 97 | 1019.5 |
| 20260902153415 | 65 | 56 | 1.0 | 4.0 | 0.00 | 0.51 | 0.02 | 98 | 1019.5 |
| 20260902153114 | 65 | 56 | 2.0 | 4.0 | 0.00 | 0.51 | 0.02 | 98 | 1019.6 |
| 20260902152915 | 65 | 56 | 1.0 | 2.0 | 0.00 | 0.51 | 0.02 | 98 | 1019.6 |
| 20260902152620 | 65 | 56 | 1.0 | 2.0 | 0.00 | 0.51 | 0.02 | 98 | 1019.6 |
| 20260902152420 | 65 | 56 | 0.0 | 2.0 | 0.00 | 0.51 | 0.02 | 97 | 1019.7 |
| 20260902152119 | 65 | 56 | 0.0 | 2.0 | 0.00 | 0.51 | 0.02 | 97 | 1019.8 |
| 20260902151919 | 65 | 56 | 0.0 | 2.0 | 0.00 | 0.51 | 0.02 | 98 | 1019.8 |
| 20260902151625 | 65 | 56 | 1.0 | 2.0 | 0.00 | 0.51 | 0.02 | 98 | 1019.8 |
| 20260902151424 | 65 | 56 | 1.0 | 2.0 | 0.00 | 0.51 | 0.02 | 98 | 1019.7 |
| 20260902151122 | 65 | 56 | 0.0 | 2.0 | 0.00 | 0.51 | 0.02 | 98 | 1019.7 |
| 20260902150923 | 65 | 56 | 0.0 | 3.0 | 0.00 | 0.51 | 0.02 | 98 | 1019.6 |
| 20260902150622 | 65 | 56 | 1.0 | 3.0 | 0.00 | 0.51 | 0.02 | 98 | 1019.7 |
| 20260902150428 | 65 | 56 | 1.0 | 3.0 | 0.00 | 0.51 | 0.02 | 98 | 1019.7 |
| 20260902150126 | 65 | 56 | 0.0 | 3.0 | 0.00 | 0.51 | 0.02 | 98 | 1019.6 |
| 20260902145907 | 65 | 56 | 2.0 | 3.0 | 0.00 | 0.51 | 0.02 | 98 | 1019.6 |
| 20260902145605 | 65 | 56 | 1.0 | 3.0 | 0.00 | 0.51 | 0.02 | 98 | 1019.6 |
| 20260902145406 | 65 | 56 | 0.0 | 3.0 | 0.00 | 0.51 | 0.02 | 98 | 1019.6 |
| 20260902145131 | 65 | 56 | 1.0 | 3.0 | 0.00 | 0.51 | 0.02 | 98 | 1019.5 |
| 20260902144931 | 65 | 56 | 2.0 | 3.0 | 0.00 | 0.54 | 0.02 | 98 | 1019.5 |
| 20260902144608 | 65 | 56 | 2.0 | 3.0 | 0.00 | 0.54 | 0.02 | 98 | 1019.6 |
| 20260902144430 | 65 | 56 | 2.0 | 3.0 | 0.00 | 0.54 | 0.02 | 98 | 1019.6 |
| 20260902144109 | 65 | 56 | 1.0 | 4.0 | 0.00 | 0.54 | 0.02 | 98 | 1019.5 |
| 20260902143934 | 65 | 56 | 0.0 | 4.0 | 0.00 | 0.54 | 0.02 | 98 | 1019.5 |
| 20260902143608 | 65 | 56 | 1.0 | 4.0 | 0.00 | 0.54 | 0.02 | 98 | 1019.5 |
| 20260902143419 | 65 | 56 | 2.0 | 6.0 | 0.00 | 0.54 | 0.02 | 98 | 1019.4 |
| 20260902143113 | 65 | 56 | 1.0 | 6.0 | 0.00 | 0.54 | 0.02 | 98 | 1019.3 |
| 20260902142918 | 65 | 56 | 2.0 | 6.0 | 0.00 | 0.54 | 0.02 | 98 | 1019.4 |
| 20260902142631 | 65 | 55 | 2.0 | 6.0 | 0.00 | 0.54 | 0.02 | 98 | 1019.4 |
| 20260902142422 | 65 | 55 | 2.0 | 4.0 | 0.00 | 0.54 | 0.02 | 98 | 1019.5 |
| 20260902142137 | 65 | 55 | 3.0 | 4.0 | 0.00 | 0.54 | 0.02 | 98 | 1019.5 |
| 20260902141928 | 65 | 55 | 2.0 | 3.0 | 0.00 | 0.54 | 0.02 | 98 | 1019.5 |
| 20260902141620 | 65 | 55 | 2.0 | 3.0 | 0.00 | 0.54 | 0.02 | 98 | 1019.6 |
| 20260902141405 | 65 | 55 | 1.0 | 2.0 | 0.00 | 0.54 | 0.02 | 98 | 1019.7 |
| 20260902141126 | 65 | 55 | 1.0 | 2.0 | 0.00 | 0.54 | 0.02 | 98 | 1019.7 |
| 20260902140911 | 65 | 55 | 0.0 | 2.0 | 0.00 | 0.54 | 0.02 | 98 | 1019.7 |
| 20260902140605 | 65 | 55 | 1.0 | 3.0 | 0.00 | 0.54 | 0.02 | 98 | 1019.8 |
| 20260902140410 | 65 | 55 | 0.0 | 4.0 | 0.00 | 0.54 | 0.02 | 98 | 1019.7 |
| 20260902140104 | 65 | 55 | 1.0 | 5.0 | 0.00 | 0.54 | 0.02 | 98 | 1019.6 |
| 20260902135908 | 65 | 55 | 2.0 | 5.0 | 0.00 | 0.54 | 0.02 | 98 | 1019.6 |
| 20260902135629 | 65 | 55 | 3.0 | 5.0 | 0.00 | 0.54 | 0.02 | 98 | 1019.6 |
| 20260902135413 | 65 | 55 | 2.0 | 3.0 | 0.00 | 0.54 | 0.02 | 98 | 1019.6 |
| 20260902135108 | 65 | 55 | 2.0 | 3.0 | 0.00 | 0.54 | 0.02 | 98 | 1019.6 |
| 20260902134912 | 65 | 55 | 1.0 | 3.0 | 0.00 | 0.54 | 0.02 | 98 | 1019.6 |
| 20260902134633 | 65 | 55 | 1.0 | 2.0 | 0.00 | 0.54 | 0.02 | 98 | 1019.6 |
| 20260902134412 | 65 | 55 | 2.0 | 3.0 | 0.00 | 0.54 | 0.02 | 98 | 1019.7 |
| 20260902134109 | 65 | 55 | 1.0 | 3.0 | 0.00 | 0.54 | 0.02 | 98 | 1019.6 |